This is the latest recevied weather packets stored in our database for station/object K7TUS-6. If no packets are shown the sender has not sent any weather packets the latest 10 day(s).
| Time | Temp. | Humidity | Pressure | Rain* | Wind** | Luminosity | Snow |
|---|---|---|---|---|---|---|---|
| 1777609203 | 7.22° C | 17% | 978.1 hPa | - | - | - | - |
| 1777608909 | 7.22° C | 21% | 978.2 hPa | - | - | - | - |
| 1777608608 | 6.67° C | 32% | 978.6 hPa | - | - | - | - |
| 1777608307 | 6.67° C | 35% | 978 hPa | - | - | - | - |
| 1777608007 | 6.67° C | 37% | 978.2 hPa | - | - | - | - |
| 1777607706 | 6.67° C | 39% | 979.4 hPa | - | - | - | - |
| 1777607406 | 6.67° C | 39% | 978.7 hPa | - | - | - | - |
| 1777607105 | 6.67° C | 45% | 978.1 hPa | - | - | - | - |
| 1777606805 | 6.11° C | 50% | 977.7 hPa | - | - | - | - |
| 1777606505 | 5.56° C | 47% | 978.1 hPa | - | - | - | - |
| 1777606204 | 6.67° C | 44% | 978.4 hPa | - | - | - | - |
| 1777605904 | 7.22° C | 47% | 977.9 hPa | - | - | - | - |
| 1777605609 | 7.22° C | 44% | 977.4 hPa | - | - | - | - |
| 1777605309 | 7.22° C | 46% | 978.1 hPa | - | - | - | - |
| 1777605007 | 6.67° C | 49% | 977.5 hPa | - | - | - | - |
| 1777604706 | 6.67° C | 51% | 977.7 hPa | - | - | - | - |
| 1777604406 | 6.67° C | 37% | 977.9 hPa | - | - | - | - |
| 1777604105 | 7.22° C | 38% | 977 hPa | - | - | - | - |
| 1777603505 | 7.78° C | 39% | 977.1 hPa | - | - | - | - |
| 1777602904 | 8.33° C | 24% | 976.7 hPa | - | - | - | - |
| 1777602604 | 8.33° C | 22% | 976.7 hPa | - | - | - | - |
| 1777602303 | 8.33° C | 22% | 977.2 hPa | - | - | - | - |
| 1777602003 | 8.33° C | 17% | 977.3 hPa | - | - | - | - |
| 1777601407 | 9.44° C | 10% | 977 hPa | - | - | - | - |
| 1777587307 | 18.33° C | 1% | 978.6 hPa | - | - | - | - |
* Rain since midnight (hover to see other rain measurements)
** Current wind speed in m/s (hover to see current wind gust speed)